This is the latest recevied weather packets stored in our database for station/object IU5GBO-13. If no packets are shown the sender has not sent any weather packets the latest 10 day(s).
| Time | Temp. | Humidity | Pressure | Rain* | Wind** | Luminosity | Snow |
|---|---|---|---|---|---|---|---|
| 1777919778 | 17.22° C | 69% | 1018.3 hPa | - | - | - | - |
| 1777919178 | 17.22° C | 69% | 1018.4 hPa | - | - | - | - |
| 1777918578 | 17.78° C | 69% | 1018.5 hPa | - | - | - | - |
| 1777917977 | 17.78° C | 68% | 1018.5 hPa | - | - | - | - |
| 1777917378 | 17.78° C | 68% | 1018.5 hPa | - | - | - | - |
| 1777916778 | 17.78° C | 67% | 1018.6 hPa | - | - | - | - |
| 1777916178 | 18.33° C | 66% | 1018.7 hPa | - | - | - | - |
| 1777915578 | 18.33° C | 66% | 1018.7 hPa | - | - | - | - |
| 1777914978 | 18.33° C | 65% | 1018.7 hPa | - | - | - | - |
| 1777914378 | 18.33° C | 64% | 1018.8 hPa | - | - | - | - |
| 1777913778 | 18.33° C | 64% | 1018.8 hPa | - | - | - | - |
| 1777913177 | 18.89° C | 63% | 1018.8 hPa | - | - | - | - |
| 1777912578 | 18.89° C | 62% | 1018.6 hPa | - | - | - | - |
| 1777911978 | 19.44° C | 61% | 1018.8 hPa | - | - | - | - |
| 1777911378 | 19.44° C | 60% | 1018.9 hPa | - | - | - | - |
| 1777910778 | 18.89° C | 61% | 1018.9 hPa | - | - | - | - |
| 1777910178 | 19.44° C | 60% | 1019 hPa | - | - | - | - |
| 1777909577 | 19.44° C | 59% | 1019 hPa | - | - | - | - |
| 1777908978 | 20° C | 58% | 1019 hPa | - | - | - | - |
| 1777908378 | 20° C | 58% | 1018.9 hPa | - | - | - | - |
| 1777907778 | 19.44° C | 58% | 1019.1 hPa | - | - | - | - |
| 1777907178 | 19.44° C | 57% | 1019.1 hPa | - | - | - | - |
| 1777906577 | 19.44° C | 57% | 1019 hPa | - | - | - | - |
| 1777905977 | 19.44° C | 57% | 1019.1 hPa | - | - | - | - |
| 1777905378 | 19.44° C | 59% | 1019.2 hPa | - | - | - | - |
* Rain since midnight (hover to see other rain measurements)
** Current wind speed in m/s (hover to see current wind gust speed)